Location: Newark
(47.5000°N, 4.6167°E)
Time: 00:12:09
(UTC+00:00)

ISS - Pass Details

Date: 15 May 2021
Orbit: 417 x 422 km, 51.6° (Epoch: 14 June)

Event Time Altitude Azimuth Distance (km) Brightness Sun altitude
Rises 20:00:28 0° 206° (SSW) 2,350 -0.1 -7.5°
Reaches altitude 10° 20:02:52 10° 190° (S) 1,492 -1.2 -7.8°
Maximum altitude 20:05:28 21° 139° (SE) 996 -2.5 -8.2°
Drops below altitude 10° 20:08:05 10° 88° (E) 1,501 -1.4 -8.5°
Sets 20:10:30 0° 72° (ENE) 2,371 -0.2 -8.8°
